Time,TemperatureF,DewpointF,PressureIn,WindDirection,WindDirectionDegrees,WindSpeedMPH,WindSpeedGustMPH,Humidity,HourlyPrecipIn,Conditions,Clouds,dailyrainin,SolarRadiationWatts/m^2,SoftwareType,DateUTC
2013-01-23 00:02:00,54.0,11.0,30.31,NW,318,8.0,12.0,17,-99.99,,,-99.99,0.000000,,2013-01-23 07:02:00,
2013-01-23 00:12:00,54.0,11.0,30.31,NW,317,6.0,9.0,17,-99.99,,,-99.99,0.000000,,2013-01-23 07:12:00,
2013-01-23 00:22:00,54.0,11.0,30.31,NW,317,6.0,9.0,17,-99.99,,,-99.99,0.000000,,2013-01-23 07:22:00,
2013-01-23 00:30:00,52.0,12.0,30.32,NW,307,7.0,11.0,19,-99.99,,,-99.99,0.000000,,2013-01-23 07:30:00,
2013-01-23 00:33:00,54.0,11.0,30.32,NW,320,8.0,11.0,17,-99.99,,,-99.99,0.000000,,2013-01-23 07:33:00,
2013-01-23 00:42:00,54.0,12.0,30.32,NNW,332,9.0,13.0,18,-99.99,,,-99.99,0.000000,,2013-01-23 07:42:00,
2013-01-23 00:53:00,54.0,12.0,30.32,NNW,332,9.0,13.0,18,-99.99,,,-99.99,0.000000,,2013-01-23 07:53:00,
2013-01-23 01:02:00,52.0,12.0,30.32,NW,307,7.0,11.0,19,-99.99,,,-99.99,0.000000,,2013-01-23 08:02:00,
2013-01-23 01:13:00,52.0,12.0,30.32,NW,307,7.0,11.0,19,-99.99,,,-99.99,0.000000,,2013-01-23 08:13:00,
2013-01-23 01:22:00,52.0,12.0,30.32,NW,307,7.0,11.0,19,-99.99,,,-99.99,0.000000,,2013-01-23 08:22:00,
2013-01-23 03:33:00,51.0,11.0,30.32,North,4,2.0,4.0,19,-99.99,,,-99.99,0.000000,,2013-01-23 10:33:00,
2013-01-23 03:43:00,51.0,11.0,30.32,North,4,2.0,4.0,19,-99.99,,,-99.99,0.000000,,2013-01-23 10:43:00,
2013-01-23 04:33:00,46.0,13.0,30.32,WNW,294,7.0,10.0,25,-99.99,,,-99.99,0.000000,,2013-01-23 11:33:00,
2013-01-23 04:43:00,46.0,13.0,30.32,WNW,287,6.0,8.0,25,-99.99,,,-99.99,0.000000,,2013-01-23 11:43:00,
2013-01-23 04:53:00,46.0,13.0,30.32,WNW,287,6.0,8.0,25,-99.99,,,-99.99,0.000000,,2013-01-23 11:53:00,
2013-01-23 05:03:00,49.0,13.0,30.32,WNW,288,2.0,6.0,22,-99.99,,,-99.99,0.000000,,2013-01-23 12:03:00,
2013-01-23 05:12:00,46.0,13.0,30.33,West,272,2.0,5.0,25,-99.99,,,-99.99,0.000000,,2013-01-23 12:12:00,
2013-01-23 05:22:00,46.0,13.0,30.33,West,272,2.0,5.0,25,-99.99,,,-99.99,0.000000,,2013-01-23 12:22:00,
2013-01-23 05:33:00,45.0,12.0,30.33,WNW,294,5.0,8.0,26,-99.99,,,-99.99,0.000000,,2013-01-23 12:33:00,
2013-01-23 05:43:00,43.0,13.0,30.33,WNW,295,5.0,7.0,29,-99.99,,,-99.99,0.000000,,2013-01-23 12:43:00,
2013-01-23 05:53:00,43.0,13.0,30.33,WNW,295,5.0,7.0,29,-99.99,,,-99.99,0.000000,,2013-01-23 12:53:00,
2013-01-23 06:03:00,45.0,13.0,30.33,WNW,286,4.0,7.0,26,-99.99,,,-99.99,0.000000,,2013-01-23 13:03:00,
2013-01-23 06:13:00,44.0,13.0,30.34,WNW,283,5.0,7.0,27,-99.99,,,-99.99,0.000000,,2013-01-23 13:13:00,
2013-01-23 06:23:00,44.0,13.0,30.34,WNW,283,5.0,7.0,27,-99.99,,,-99.99,0.000000,,2013-01-23 13:23:00,
2013-01-23 06:33:00,45.0,13.0,30.34,WNW,298,6.0,9.0,26,-99.99,,,-99.99,0.000000,,2013-01-23 13:33:00,
2013-01-23 06:42:00,44.0,13.0,30.35,WNW,295,5.0,8.0,27,-99.99,,,-99.99,0.000000,,2013-01-23 13:42:00,
2013-01-23 06:53:00,44.0,13.0,30.35,WNW,295,5.0,8.0,27,-99.99,,,-99.99,0.000000,,2013-01-23 13:53:00,
2013-01-23 07:02:00,43.0,13.0,30.35,WNW,294,5.0,9.0,28,-99.99,,,-99.99,0.000000,,2013-01-23 14:02:00,
2013-01-23 07:12:00,44.0,13.0,30.35,WNW,301,6.0,8.0,28,-99.99,,,-99.99,0.000000,,2013-01-23 14:12:00,
2013-01-23 07:23:00,44.0,13.0,30.35,WNW,301,6.0,8.0,28,-99.99,,,-99.99,0.000000,,2013-01-23 14:23:00,
2013-01-23 07:33:00,43.0,14.0,30.35,NW,307,7.0,9.0,30,-99.99,,,-99.99,1.390000,,2013-01-23 14:33:00,
2013-01-23 07:43:00,43.0,14.0,30.35,NW,307,7.0,9.0,30,-99.99,,,-99.99,1.390000,,2013-01-23 14:43:00,
2013-01-23 07:53:00,43.0,14.0,30.35,NW,307,7.0,9.0,30,-99.99,,,-99.99,1.390000,,2013-01-23 14:53:00,
2013-01-23 08:03:00,45.0,15.0,30.35,NW,310,7.0,9.0,28,-99.99,,,-99.99,75.309998,,2013-01-23 15:03:00,
2013-01-23 08:12:00,45.0,15.0,30.35,NW,310,7.0,9.0,28,-99.99,,,-99.99,75.309998,,2013-01-23 15:12:00,
2013-01-23 08:23:00,45.0,15.0,30.35,NW,310,7.0,9.0,28,-99.99,,,-99.99,75.309998,,2013-01-23 15:23:00,
2013-01-23 08:30:00,55.0,13.0,30.39,East,83,4.0,6.0,18,-99.99,,,-99.99,327.049988,,2013-01-23 15:30:00,
2013-01-23 08:33:00,50.0,15.0,30.36,NW,308,7.0,9.0,23,-99.99,,,-99.99,138.770004,,2013-01-23 15:33:00,
2013-01-23 08:43:00,56.0,15.0,30.38,NNE,31,3.0,5.0,19,-99.99,,,-99.99,262.890015,,2013-01-23 15:43:00,
2013-01-23 08:53:00,56.0,15.0,30.38,NNE,31,3.0,5.0,19,-99.99,,,-99.99,262.890015,,2013-01-23 15:53:00,
2013-01-23 09:03:00,55.0,13.0,30.39,East,83,4.0,6.0,18,-99.99,,,-99.99,327.049988,,2013-01-23 16:03:00,
2013-01-23 09:12:00,55.0,13.0,30.39,East,83,4.0,6.0,18,-99.99,,,-99.99,327.049988,,2013-01-23 16:12:00,
2013-01-23 09:23:00,55.0,13.0,30.39,East,83,4.0,6.0,18,-99.99,,,-99.99,327.049988,,2013-01-23 16:23:00,
2013-01-23 17:42:00,60.0,12.0,30.33,NNW,342,4.0,7.0,14,-99.99,,,-99.99,34.869999,,2013-01-24 00:42:00,
2013-01-23 17:53:00,60.0,12.0,30.33,NNW,342,4.0,7.0,14,-99.99,,,-99.99,34.869999,,2013-01-24 00:53:00,
2013-01-23 18:03:00,58.0,13.0,30.33,NW,309,6.0,7.0,16,-99.99,,,-99.99,9.760000,,2013-01-24 01:03:00,
2013-01-23 18:12:00,54.0,14.0,30.32,WNW,303,6.0,7.0,20,-99.99,,,-99.99,3.490000,,2013-01-24 01:12:00,
2013-01-23 18:23:00,54.0,14.0,30.32,WNW,303,6.0,7.0,20,-99.99,,,-99.99,3.490000,,2013-01-24 01:23:00,
2013-01-23 18:33:00,52.0,14.0,30.32,NW,304,8.0,10.0,21,-99.99,,,-99.99,0.000000,,2013-01-24 01:33:00,
2013-01-23 18:42:00,52.0,14.0,30.32,NW,305,8.0,9.0,21,-99.99,,,-99.99,0.000000,,2013-01-24 01:42:00,
2013-01-23 18:52:00,52.0,14.0,30.32,NW,305,8.0,9.0,21,-99.99,,,-99.99,0.000000,,2013-01-24 01:52:00,
2013-01-23 19:02:00,52.0,14.0,30.33,WNW,299,7.0,9.0,21,-99.99,,,-99.99,0.000000,,2013-01-24 02:02:00,
2013-01-23 19:12:00,51.0,14.0,30.33,WNW,297,8.0,9.0,21,-99.99,,,-99.99,0.000000,,2013-01-24 02:12:00,
2013-01-23 19:22:00,51.0,14.0,30.33,WNW,297,8.0,9.0,21,-99.99,,,-99.99,0.000000,,2013-01-24 02:22:00,
2013-01-23 19:33:00,51.0,14.0,30.33,NW,305,8.0,10.0,22,-99.99,,,-99.99,0.000000,,2013-01-24 02:33:00,
2013-01-23 19:42:00,51.0,14.0,30.33,NW,305,8.0,10.0,22,-99.99,,,-99.99,0.000000,,2013-01-24 02:42:00,
2013-01-23 19:52:00,51.0,14.0,30.33,NW,305,8.0,10.0,22,-99.99,,,-99.99,0.000000,,2013-01-24 02:52:00,
2013-01-23 20:02:00,51.0,15.0,30.33,WNW,296,8.0,10.0,22,-99.99,,,-99.99,0.000000,,2013-01-24 03:02:00,
2013-01-23 20:12:00,52.0,15.0,30.32,WNW,291,8.0,10.0,22,-99.99,,,-99.99,0.000000,,2013-01-24 03:12:00,
2013-01-23 20:22:00,52.0,15.0,30.32,WNW,291,8.0,10.0,22,-99.99,,,-99.99,0.000000,,2013-01-24 03:22:00,
2013-01-23 20:33:00,52.0,15.0,30.32,WNW,299,8.0,10.0,22,-99.99,,,-99.99,0.000000,,2013-01-24 03:33:00,
2013-01-23 20:43:00,53.0,16.0,30.32,NW,307,7.0,9.0,23,-99.99,,,-99.99,0.000000,,2013-01-24 03:43:00,
2013-01-23 20:53:00,53.0,16.0,30.32,NW,307,7.0,9.0,23,-99.99,,,-99.99,0.000000,,2013-01-24 03:53:00,
2013-01-23 21:00:00,56.0,17.0,30.32,NW,306,8.0,11.0,21,-99.99,,,-99.99,0.000000,,2013-01-24 04:00:00,
2013-01-23 21:02:00,52.0,17.0,30.32,NW,306,6.0,9.0,24,-99.99,,,-99.99,0.000000,,2013-01-24 04:02:00,
2013-01-23 21:12:00,53.0,17.0,30.32,NW,308,5.0,9.0,23,-99.99,,,-99.99,0.000000,,2013-01-24 04:12:00,
2013-01-23 21:22:00,53.0,17.0,30.32,NW,308,5.0,9.0,23,-99.99,,,-99.99,0.000000,,2013-01-24 04:22:00,
2013-01-23 21:32:00,56.0,17.0,30.32,NW,306,8.0,11.0,21,-99.99,,,-99.99,0.000000,,2013-01-24 04:32:00,
2013-01-23 21:42:00,56.0,17.0,30.32,NW,306,8.0,11.0,21,-99.99,,,-99.99,0.000000,,2013-01-24 04:42:00,
2013-01-23 21:53:00,56.0,17.0,30.32,NW,306,8.0,11.0,21,-99.99,,,-99.99,0.000000,,2013-01-24 04:53:00,